User: anonymous   Login
Location: Unspecified
(0.0000°N, 0.0000°E)
Time: 08:38:17
(UTC+02:00)
Language:

Cosmos 1437 - Orbit

View from above orbital plane
View from above orbital plane
View from above satellite
View from above satellite

Ground track
Ground track

The orbit data is extracted from the following two-line orbital elements,

1 13770U 83003A   17207.84003075 +.00003818 +00000-0 +63149-4 0  9993
2 13770 081.1577 099.7885 0007588 113.6239 246.5807 15.51865443892393
Epoch (UTC): 26 July 2017 20:09:38
Eccentricity: 0.0007588
inclination: 81.1577°
perigee height: 406 km
apogee height: 416 km
right ascension of ascending node: 99.7885°
argument of perigee: 113.6239°
revolutions per day: 15.51865443
mean anomaly at epoch: 246.5807°
orbit number at epoch: 89239

The dashed part of the orbit path shows where the satellite is in the earth's shadow,  

DLR